User: anonymous   Login
Location: Pulvis Stellarum Observatory
(41.6962°N, 71.4263°W)
Time: 23:20:59
(UTC-04:00)
Language:

Cosmos 1758 - Orbit

View from above orbital plane
View from above orbital plane
View from above satellite
View from above satellite

Ground track
Ground track

The orbit data is extracted from the following two-line orbital elements,

1 16791U 86046A   14304.41073949  .00003634  00000-0  27702-3 0  1727
2 16791 082.4716 245.8773 0019777 109.5591 250.7772 15.01612337541460
Epoch (UTC): 31 October 2014 09:51:27
Eccentricity: 0.0019777
inclination: 82.4716°
perigee height: 548 km
apogee height: 575 km
right ascension of ascending node: 245.8773°
argument of perigee: 109.5591°
revolutions per day: 15.01612337
mean anomaly at epoch: 250.7772°
orbit number at epoch: 54146

The dashed part of the orbit path shows where the satellite is in the earth's shadow,  

DLR